Find Starlink 31838

NORAD ID: 60130 Int'l Des: 2024-118 Owner: SPXS Country: US Constellation: starlink operational
LEOCIRCULAR

当前视图

正在加载3D地球...

About Starlink 31838

Starlink 31838 (NORAD 60130) is a starlink constellation satellite (v2 mini) launched Jun 24, 2024 by SPXS of US. It operates in LEO, CIRCULAR orbit with a mass of 730.00 kg.

即将过境

Passes for default location (London). Set your location on the main map for personalized predictions.

高度历史

Loading altitude history...

两行轨道根数

1 60130U 24118T 26264.21848557 .00017698 00000-0 58048-3 0 9995
2 60130 53.1557 197.0255 0000680 84.1807 275.9272 15.31713619125659
Epoch: Sep 21, 2026 • Age: 48 hours

当前状态

高度 474.3 km
远地点 / 近地点 N/A
速度 7.63 km/s
星下点 -13.82°S, 59.96°W
发射日期 Jun 24, 2024
运行时间 2.2 years
类型 internet

技术详情

分类 Payload
质量 730.00 kg
干质量 700.00 kg
长度 0.30 m
跨度 29.00 m
形状 ? Box + pan
制造商 SPXS
平台类型 Starlink V2M
阶段状态 In Orbit
所有者/国家 SPXS/US

Most Searched